Time,TemperatureF,DewpointF,PressureIn,WindDirection,WindDirectionDegrees,WindSpeedMPH,WindSpeedGustMPH,Humidity,HourlyPrecipIn,Conditions,Clouds,dailyrainin,SolarRadiationWatts/m^2,SoftwareType,DateUTC
2013-10-20 00:02:00,69.1,67.3,29.93,South,173,1.0,1.0,94,0.00,,,0.00,0.0,meteohub,2013-10-20 04:02:00,
2013-10-20 00:05:00,69.1,67.3,29.93,SSE,166,0.0,1.0,94,0.00,,,0.00,0.0,meteohub,2013-10-20 04:05:00,
2013-10-20 00:11:00,69.1,67.3,29.93,NNE,27,1.0,1.0,94,0.00,,,0.00,0.0,meteohub,2013-10-20 04:11:00,
2013-10-20 00:17:00,68.7,66.4,29.93,NNE,23,1.0,2.0,92,0.00,,,0.00,0.0,meteohub,2013-10-20 04:17:00,
2013-10-20 00:24:00,68.5,65.8,29.93,NW,322,3.0,3.0,91,0.00,,,0.00,0.0,meteohub,2013-10-20 04:24:00,
2013-10-20 00:30:00,68.4,65.3,29.93,NW,309,1.0,2.0,90,0.00,,,0.00,0.0,meteohub,2013-10-20 04:30:00,
2013-10-20 00:32:00,68.2,65.1,29.92,NE,51,0.0,2.0,90,0.00,,,0.00,0.0,meteohub,2013-10-20 04:32:00,
2013-10-20 00:37:00,68.0,64.9,29.93,NE,51,0.0,3.0,90,0.00,,,0.00,0.0,meteohub,2013-10-20 04:37:00,
2013-10-20 00:42:00,67.6,64.9,29.93,NE,51,0.0,3.0,91,0.00,,,0.00,0.0,meteohub,2013-10-20 04:42:00,
2013-10-20 00:47:00,67.6,64.9,29.93,NE,39,0.0,3.0,91,0.00,,,0.00,0.0,meteohub,2013-10-20 04:47:00,
2013-10-20 00:52:00,67.3,64.9,29.93,SW,229,0.0,3.0,92,0.00,,,0.00,0.0,meteohub,2013-10-20 04:52:00,
2013-10-20 00:57:00,67.1,64.8,29.93,SW,229,0.0,2.0,92,0.00,,,0.00,0.0,meteohub,2013-10-20 04:57:00,
2013-10-20 01:04:00,66.9,64.6,29.93,NNE,13,0.0,2.0,92,0.00,,,0.00,0.0,meteohub,2013-10-20 05:04:00,
2013-10-20 01:10:00,66.9,64.6,29.93,West,281,0.0,2.0,92,0.00,,,0.00,0.0,meteohub,2013-10-20 05:10:00,
2013-10-20 01:16:00,66.9,64.6,29.93,ENE,67,0.0,2.0,92,0.00,,,0.00,0.0,meteohub,2013-10-20 05:16:00,
2013-10-20 01:22:00,66.9,64.2,29.93,NNE,13,1.0,2.0,91,0.00,,,0.00,0.0,meteohub,2013-10-20 05:22:00,
2013-10-20 01:27:00,66.7,64.4,29.92,ENE,61,0.0,2.0,92,0.00,,,0.00,0.0,meteohub,2013-10-20 05:27:00,
2013-10-20 01:32:00,66.7,64.4,29.92,NNE,26,1.0,2.0,92,0.00,,,0.00,0.0,meteohub,2013-10-20 05:32:00,
2013-10-20 01:37:00,66.6,64.2,29.92,NNE,26,0.0,2.0,92,0.00,,,0.00,0.0,meteohub,2013-10-20 05:37:00,
2013-10-20 01:42:00,66.6,64.2,29.92,North,0,0.0,2.0,92,0.00,,,0.00,0.0,meteohub,2013-10-20 05:42:00,
2013-10-20 01:47:00,66.4,64.0,29.93,North,0,0.0,2.0,92,0.00,,,0.00,0.0,meteohub,2013-10-20 05:47:00,
2013-10-20 01:54:00,66.4,64.0,29.93,North,0,0.0,3.0,92,0.00,,,0.00,0.0,meteohub,2013-10-20 05:54:00,
2013-10-20 02:00:00,66.2,64.0,29.93,North,0,0.0,3.0,93,0.00,,,0.00,0.0,meteohub,2013-10-20 06:00:00,
2013-10-20 02:06:00,66.2,63.9,29.92,North,0,0.0,3.0,92,0.00,,,0.00,0.0,meteohub,2013-10-20 06:06:00,
2013-10-20 02:12:00,66.0,63.7,29.92,North,0,0.0,1.0,92,0.00,,,0.00,0.0,meteohub,2013-10-20 06:12:00,
2013-10-20 02:17:00,66.0,63.7,29.92,NNE,31,0.0,1.0,92,0.00,,,0.00,0.0,meteohub,2013-10-20 06:17:00,
2013-10-20 02:22:00,65.8,63.5,29.92,NNE,31,0.0,1.0,92,0.00,,,0.00,0.0,meteohub,2013-10-20 06:22:00,
2013-10-20 02:27:00,65.8,63.5,29.92,NNE,31,0.0,1.0,92,0.00,,,0.00,0.0,meteohub,2013-10-20 06:27:00,
2013-10-20 02:34:00,65.7,63.3,29.92,NNE,31,0.0,1.0,92,0.00,,,0.00,0.0,meteohub,2013-10-20 06:34:00,
2013-10-20 02:40:00,65.5,63.1,29.92,NNW,343,0.0,1.0,92,0.00,,,0.00,0.0,meteohub,2013-10-20 06:40:00,
2013-10-20 02:47:00,65.1,62.8,29.92,North,351,0.0,1.0,92,0.00,,,0.00,0.0,meteohub,2013-10-20 06:47:00,
2013-10-20 02:52:00,65.1,62.8,29.92,North,351,0.0,2.0,92,0.00,,,0.00,0.0,meteohub,2013-10-20 06:52:00,
2013-10-20 02:57:00,64.9,62.6,29.91,North,355,1.0,2.0,92,0.00,,,0.00,0.0,meteohub,2013-10-20 06:57:00,
2013-10-20 03:02:00,64.8,62.4,29.92,NE,56,0.0,2.0,92,0.00,,,0.00,0.0,meteohub,2013-10-20 07:02:00,
2013-10-20 03:07:00,64.8,62.6,29.91,NE,56,0.0,2.0,93,0.00,,,0.00,0.0,meteohub,2013-10-20 07:07:00,
2013-10-20 03:12:00,64.6,62.4,29.91,NE,56,0.0,3.0,93,0.00,,,0.00,0.0,meteohub,2013-10-20 07:12:00,
2013-10-20 03:17:00,64.4,62.4,29.91,NNE,26,0.0,3.0,93,0.00,,,0.00,0.0,meteohub,2013-10-20 07:17:00,
2013-10-20 03:24:00,64.2,62.4,29.91,North,5,1.0,3.0,94,0.00,,,0.00,0.0,meteohub,2013-10-20 07:24:00,
2013-10-20 03:30:00,64.0,62.2,29.91,North,5,0.0,3.0,94,0.00,,,0.00,0.0,meteohub,2013-10-20 07:30:00,
2013-10-20 03:36:00,63.9,62.1,29.91,North,5,0.0,1.0,94,0.00,,,0.00,0.0,meteohub,2013-10-20 07:36:00,
2013-10-20 03:42:00,63.7,62.2,29.90,North,5,0.0,1.0,95,0.00,,,0.00,0.0,meteohub,2013-10-20 07:42:00,
2013-10-20 03:47:00,63.5,62.1,29.91,North,5,0.0,1.0,95,0.00,,,0.00,0.0,meteohub,2013-10-20 07:47:00,
2013-10-20 03:52:00,63.5,62.1,29.90,North,5,0.0,0.0,95,0.00,,,0.00,0.0,meteohub,2013-10-20 07:52:00,
2013-10-20 03:58:00,63.3,61.9,29.91,North,5,0.0,0.0,95,0.00,,,0.00,0.0,meteohub,2013-10-20 07:58:00,
2013-10-20 04:04:00,63.3,61.9,29.91,North,5,0.0,0.0,95,0.00,,,0.00,0.0,meteohub,2013-10-20 08:04:00,
2013-10-20 04:10:00,63.3,61.9,29.91,North,5,0.0,0.0,95,0.00,,,0.00,0.0,meteohub,2013-10-20 08:10:00,
2013-10-20 04:16:00,63.3,62.2,29.91,North,5,0.0,1.0,96,0.00,,,0.00,0.0,meteohub,2013-10-20 08:16:00,
2013-10-20 04:22:00,63.3,62.2,29.91,North,5,0.0,1.0,96,0.00,,,0.00,0.0,meteohub,2013-10-20 08:22:00,
2013-10-20 04:27:00,63.3,62.2,29.91,North,5,0.0,1.0,96,0.00,,,0.00,0.0,meteohub,2013-10-20 08:27:00,
2013-10-20 04:32:00,63.3,62.2,29.91,North,5,0.0,0.0,96,0.00,,,0.00,0.0,meteohub,2013-10-20 08:32:00,
2013-10-20 04:37:00,63.3,62.2,29.90,North,5,0.0,0.0,96,0.00,,,0.00,0.0,meteohub,2013-10-20 08:37:00,
2013-10-20 04:42:00,63.7,62.6,29.91,North,5,0.0,0.0,96,0.00,,,0.00,0.0,meteohub,2013-10-20 08:42:00,
2013-10-20 04:47:00,63.9,62.4,29.91,North,5,1.0,0.0,95,0.00,,,0.00,0.0,meteohub,2013-10-20 08:47:00,
2013-10-20 04:52:00,64.0,62.2,29.91,North,5,0.0,1.0,94,0.00,,,0.00,0.0,meteohub,2013-10-20 08:52:00,
2013-10-20 04:57:00,64.2,62.4,29.91,North,5,0.0,1.0,94,0.00,,,0.00,0.0,meteohub,2013-10-20 08:57:00,
2013-10-20 05:02:00,64.2,62.4,29.91,North,5,0.0,1.0,94,0.00,,,0.00,0.0,meteohub,2013-10-20 09:02:00,
2013-10-20 05:07:00,64.2,62.2,29.91,North,5,0.0,1.0,93,0.00,,,0.00,0.0,meteohub,2013-10-20 09:07:00,
2013-10-20 05:12:00,64.2,62.2,29.92,North,5,0.0,1.0,93,0.00,,,0.00,0.0,meteohub,2013-10-20 09:12:00,
2013-10-20 05:17:00,64.6,62.4,29.92,North,5,0.0,1.0,93,0.00,,,0.00,0.0,meteohub,2013-10-20 09:17:00,
2013-10-20 05:22:00,64.6,62.4,29.92,North,5,0.0,1.0,93,0.00,,,0.00,0.0,meteohub,2013-10-20 09:22:00,
2013-10-20 05:27:00,64.6,62.4,29.91,North,5,0.0,1.0,93,0.00,,,0.00,0.0,meteohub,2013-10-20 09:27:00,
2013-10-20 05:32:00,64.4,62.4,29.91,North,5,0.0,1.0,93,0.00,,,0.00,0.0,meteohub,2013-10-20 09:32:00,
2013-10-20 05:37:00,64.2,62.2,29.91,North,5,0.0,1.0,93,0.00,,,0.00,0.0,meteohub,2013-10-20 09:37:00,
2013-10-20 05:42:00,64.2,62.2,29.92,North,5,0.0,1.0,93,0.00,,,0.00,0.0,meteohub,2013-10-20 09:42:00,
2013-10-20 05:47:00,64.2,62.4,29.92,North,5,0.0,1.0,94,0.00,,,0.00,0.0,meteohub,2013-10-20 09:47:00,
2013-10-20 05:52:00,64.0,62.2,29.92,North,5,0.0,1.0,94,0.00,,,0.00,0.0,meteohub,2013-10-20 09:52:00,
2013-10-20 05:57:00,64.0,62.1,29.92,North,5,0.0,1.0,93,0.00,,,0.00,0.0,meteohub,2013-10-20 09:57:00,
2013-10-20 06:02:00,64.0,62.1,29.92,North,9,0.0,1.0,93,0.00,,,0.00,0.0,meteohub,2013-10-20 10:02:00,
2013-10-20 06:08:00,63.9,61.5,29.92,NE,56,0.0,1.0,92,0.00,,,0.00,0.0,meteohub,2013-10-20 10:08:00,
2013-10-20 06:15:00,63.9,61.2,29.93,NE,56,1.0,1.0,91,0.00,,,0.00,0.0,meteohub,2013-10-20 10:15:00,
2013-10-20 06:21:00,63.9,61.2,29.93,NE,56,0.0,1.0,91,0.00,,,0.00,0.0,meteohub,2013-10-20 10:21:00,
2013-10-20 06:27:00,63.9,61.2,29.93,NNE,26,0.0,1.0,91,0.00,,,0.00,0.0,meteohub,2013-10-20 10:27:00,
2013-10-20 06:32:00,63.9,61.2,29.93,NNE,26,0.0,1.0,91,0.00,,,0.00,0.0,meteohub,2013-10-20 10:32:00,
2013-10-20 06:39:00,63.9,61.2,29.94,WNW,294,0.0,1.0,91,0.00,,,0.00,0.0,meteohub,2013-10-20 10:39:00,
2013-10-20 06:46:00,63.9,60.8,29.94,NW,305,0.0,1.0,90,0.00,,,0.00,0.0,meteohub,2013-10-20 10:46:00,
2013-10-20 06:52:00,63.9,60.8,29.94,SSE,158,0.0,1.0,90,0.00,,,0.00,0.0,meteohub,2013-10-20 10:52:00,
2013-10-20 06:57:00,63.9,60.8,29.94,West,259,0.0,1.0,90,0.00,,,0.00,0.0,meteohub,2013-10-20 10:57:00,
2013-10-20 07:02:00,63.9,60.8,29.94,West,259,0.0,3.0,90,0.00,,,0.00,0.0,meteohub,2013-10-20 11:02:00,
2013-10-20 07:07:00,63.9,60.8,29.94,North,355,0.0,3.0,90,0.00,,,0.00,0.0,meteohub,2013-10-20 11:07:00,
2013-10-20 07:12:00,63.9,60.6,29.94,NW,313,0.0,3.0,89,0.00,,,0.00,0.0,meteohub,2013-10-20 11:12:00,
2013-10-20 07:17:00,63.9,60.6,29.95,NE,52,0.0,3.0,89,0.00,,,0.00,0.0,meteohub,2013-10-20 11:17:00,
2013-10-20 07:22:00,63.9,60.6,29.95,NNW,333,0.0,3.0,89,0.00,,,0.00,0.0,meteohub,2013-10-20 11:22:00,
2013-10-20 07:27:00,63.7,60.1,29.96,NE,46,0.0,3.0,88,0.00,,,0.00,0.0,meteohub,2013-10-20 11:27:00,
2013-10-20 07:32:00,63.7,60.1,29.95,NNE,23,2.0,3.0,88,0.00,,,0.00,0.0,meteohub,2013-10-20 11:32:00,
2013-10-20 07:39:00,63.5,59.5,29.96,WNW,290,0.0,3.0,87,0.00,,,0.00,0.0,meteohub,2013-10-20 11:39:00,
2013-10-20 07:45:00,63.5,59.5,29.96,WNW,291,0.0,3.0,87,0.00,,,0.00,5.0,meteohub,2013-10-20 11:45:00,
2013-10-20 07:51:00,63.5,59.2,29.96,WNW,293,0.0,3.0,86,0.00,,,0.00,9.0,meteohub,2013-10-20 11:51:00,
2013-10-20 07:57:00,63.7,60.1,29.96,NNE,30,0.0,2.0,88,0.00,,,0.00,11.0,meteohub,2013-10-20 11:57:00,
2013-10-20 08:02:00,63.7,60.1,29.96,NNE,30,0.0,2.0,88,0.00,,,0.00,16.0,meteohub,2013-10-20 12:02:00,
2013-10-20 08:07:00,63.7,59.7,29.96,NE,46,2.0,2.0,87,0.00,,,0.00,18.0,meteohub,2013-10-20 12:07:00,
2013-10-20 08:12:00,63.7,60.1,29.97,NE,39,0.0,2.0,88,0.00,,,0.00,14.0,meteohub,2013-10-20 12:12:00,
2013-10-20 08:17:00,63.7,60.1,29.97,NE,39,0.0,2.0,88,0.00,,,0.00,12.0,meteohub,2013-10-20 12:17:00,
2013-10-20 08:22:00,63.7,60.1,29.97,NW,311,1.0,3.0,88,0.00,,,0.00,18.0,meteohub,2013-10-20 12:22:00,
2013-10-20 08:27:00,63.7,60.1,29.97,NW,304,0.0,3.0,88,0.00,,,0.00,21.0,meteohub,2013-10-20 12:27:00,
2013-10-20 08:32:00,63.7,60.1,29.97,North,9,0.0,3.0,88,0.00,,,0.00,37.0,meteohub,2013-10-20 12:32:00,
2013-10-20 08:37:00,63.7,60.1,29.98,ENE,73,1.0,3.0,88,0.00,,,0.00,44.0,meteohub,2013-10-20 12:37:00,
2013-10-20 08:42:00,63.9,59.9,29.98,NE,39,0.0,3.0,87,0.00,,,0.00,58.0,meteohub,2013-10-20 12:42:00,
2013-10-20 08:47:00,64.0,60.1,29.98,NE,38,0.0,2.0,87,0.00,,,0.00,32.0,meteohub,2013-10-20 12:47:00,
2013-10-20 08:52:00,64.0,60.1,29.98,NE,38,0.0,2.0,87,0.00,,,0.00,69.0,meteohub,2013-10-20 12:52:00,
2013-10-20 08:57:00,64.0,60.1,29.98,NNW,335,1.0,2.0,87,0.00,,,0.00,98.0,meteohub,2013-10-20 12:57:00,
2013-10-20 09:02:00,64.4,60.4,29.98,NNW,348,1.0,2.0,87,0.00,,,0.00,60.0,meteohub,2013-10-20 13:02:00,
2013-10-20 09:07:00,64.6,60.6,29.98,NNE,19,0.0,2.0,87,0.00,,,0.00,65.0,meteohub,2013-10-20 13:07:00,
2013-10-20 09:12:00,64.6,60.3,29.98,NNE,18,1.0,3.0,86,0.00,,,0.00,90.0,meteohub,2013-10-20 13:12:00,
2013-10-20 09:17:00,64.6,60.3,29.98,NNW,340,0.0,3.0,86,0.00,,,0.00,121.0,meteohub,2013-10-20 13:17:00,
2013-10-20 09:25:00,64.9,60.6,29.98,NNW,327,0.0,3.0,86,0.00,,,0.00,121.0,meteohub,2013-10-20 13:25:00,
2013-10-20 09:31:00,65.1,60.1,29.99,NE,44,1.0,3.0,84,0.00,,,0.00,139.0,meteohub,2013-10-20 13:31:00,
2013-10-20 09:37:00,65.3,60.3,29.99,West,281,1.0,4.0,84,0.00,,,0.00,141.0,meteohub,2013-10-20 13:37:00,
2013-10-20 09:42:00,65.5,60.4,29.99,North,349,1.0,4.0,84,0.00,,,0.00,146.0,meteohub,2013-10-20 13:42:00,
2013-10-20 09:50:00,65.8,60.6,29.99,NE,44,2.0,4.0,83,0.00,,,0.00,167.0,meteohub,2013-10-20 13:50:00,
2013-10-20 09:56:00,66.0,60.6,29.99,North,11,1.0,4.0,83,0.00,,,0.00,185.0,meteohub,2013-10-20 13:56:00,
2013-10-20 10:02:00,66.4,60.4,30.00,SW,221,1.0,4.0,81,0.00,,,0.00,267.0,meteohub,2013-10-20 14:02:00,
2013-10-20 10:08:00,66.9,60.6,29.99,ENE,70,4.0,4.0,80,0.00,,,0.00,262.0,meteohub,2013-10-20 14:08:00,
2013-10-20 10:14:00,67.3,60.6,30.00,WNW,288,1.0,4.0,79,0.00,,,0.00,281.0,meteohub,2013-10-20 14:14:00,
2013-10-20 10:21:00,67.5,60.8,30.00,NNW,334,2.0,4.0,79,0.00,,,0.00,278.0,meteohub,2013-10-20 14:21:00,
2013-10-20 10:27:00,68.0,60.8,30.00,NNW,339,1.0,6.0,78,0.00,,,0.00,292.0,meteohub,2013-10-20 14:27:00,
2013-10-20 10:32:00,68.2,60.6,30.00,ENE,60,1.0,6.0,77,0.00,,,0.00,253.0,meteohub,2013-10-20 14:32:00,
2013-10-20 10:39:00,68.2,61.3,30.00,NE,35,1.0,6.0,79,0.00,,,0.00,285.0,meteohub,2013-10-20 14:39:00,
2013-10-20 10:46:00,68.2,60.6,30.00,NNW,348,0.0,6.0,77,0.00,,,0.00,339.0,meteohub,2013-10-20 14:46:00,
2013-10-20 10:52:00,68.5,60.6,30.00,NW,311,1.0,7.0,76,0.00,,,0.00,316.0,meteohub,2013-10-20 14:52:00,
2013-10-20 10:57:00,69.1,60.8,30.01,NNE,22,3.0,7.0,75,0.00,,,0.00,369.0,meteohub,2013-10-20 14:57:00,
2013-10-20 11:02:00,68.9,61.0,30.01,NNE,27,2.0,7.0,76,0.00,,,0.00,186.0,meteohub,2013-10-20 15:02:00,
2013-10-20 11:07:00,69.6,61.7,30.00,North,355,2.0,7.0,76,0.00,,,0.00,638.0,meteohub,2013-10-20 15:07:00,
2013-10-20 11:12:00,70.5,62.2,30.01,ENE,69,3.0,7.0,75,0.00,,,0.00,703.0,meteohub,2013-10-20 15:12:00,
2013-10-20 11:17:00,71.1,62.8,30.01,ENE,57,3.0,7.0,75,0.00,,,0.00,631.0,meteohub,2013-10-20 15:17:00,
2013-10-20 11:22:00,71.4,62.2,30.01,NE,46,2.0,7.0,73,0.00,,,0.00,698.0,meteohub,2013-10-20 15:22:00,
2013-10-20 11:27:00,72.3,62.4,30.01,NNE,15,6.0,7.0,71,0.00,,,0.00,642.0,meteohub,2013-10-20 15:27:00,
2013-10-20 11:32:00,71.4,59.5,30.01,NE,44,1.0,7.0,66,0.00,,,0.00,438.0,meteohub,2013-10-20 15:32:00,
2013-10-20 11:37:00,71.2,60.1,30.01,NNW,338,1.0,7.0,68,0.00,,,0.00,403.0,meteohub,2013-10-20 15:37:00,
2013-10-20 11:42:00,71.2,60.1,30.01,ENE,58,3.0,9.0,68,0.00,,,0.00,469.0,meteohub,2013-10-20 15:42:00,
2013-10-20 11:47:00,71.8,60.3,30.01,NW,307,2.0,9.0,67,0.00,,,0.00,483.0,meteohub,2013-10-20 15:47:00,
2013-10-20 11:54:00,72.1,59.7,30.01,NNE,13,1.0,9.0,65,0.00,,,0.00,425.0,meteohub,2013-10-20 15:54:00,
2013-10-20 12:00:00,72.5,59.5,30.00,NE,40,0.0,9.0,64,0.00,,,0.00,464.0,meteohub,2013-10-20 16:00:00,
2013-10-20 12:07:00,72.7,61.2,30.00,NE,40,2.0,6.0,67,0.00,,,0.00,443.0,meteohub,2013-10-20 16:07:00,
2013-10-20 12:12:00,72.7,61.2,30.00,WSW,258,1.0,6.0,67,0.00,,,0.00,413.0,meteohub,2013-10-20 16:12:00,
2013-10-20 12:17:00,72.0,59.9,30.00,NNW,343,2.0,6.0,66,0.00,,,0.00,575.0,meteohub,2013-10-20 16:17:00,
2013-10-20 12:22:00,72.0,59.2,30.01,North,0,2.0,6.0,64,0.00,,,0.00,355.0,meteohub,2013-10-20 16:22:00,
2013-10-20 12:27:00,71.8,59.4,30.01,NE,39,2.0,6.0,65,0.00,,,0.00,452.0,meteohub,2013-10-20 16:27:00,
2013-10-20 12:32:00,72.0,59.5,30.01,NE,49,2.0,6.0,65,0.00,,,0.00,536.0,meteohub,2013-10-20 16:32:00,
2013-10-20 12:37:00,72.7,61.2,30.01,North,0,2.0,6.0,67,0.00,,,0.00,534.0,meteohub,2013-10-20 16:37:00,
2013-10-20 12:42:00,73.2,60.8,30.01,NNW,345,1.0,6.0,65,0.00,,,0.00,524.0,meteohub,2013-10-20 16:42:00,
2013-10-20 12:47:00,73.6,58.8,30.00,NE,36,2.0,6.0,60,0.00,,,0.00,519.0,meteohub,2013-10-20 16:47:00,
2013-10-20 12:52:00,73.8,60.4,30.00,ENE,73,2.0,6.0,63,0.00,,,0.00,468.0,meteohub,2013-10-20 16:52:00,
2013-10-20 13:00:00,73.4,59.2,30.01,ENE,69,1.0,6.0,61,0.00,,,0.00,397.0,meteohub,2013-10-20 17:00:00,
2013-10-20 13:06:00,73.2,59.4,30.00,East,84,0.0,6.0,62,0.00,,,0.00,369.0,meteohub,2013-10-20 17:06:00,
2013-10-20 13:12:00,73.6,60.6,30.00,NE,38,2.0,6.0,64,0.00,,,0.00,591.0,meteohub,2013-10-20 17:12:00,
2013-10-20 13:18:00,75.0,61.2,29.99,East,84,2.0,6.0,62,0.00,,,0.00,504.0,meteohub,2013-10-20 17:18:00,
2013-10-20 13:25:00,74.1,59.7,29.99,NNE,32,0.0,6.0,61,0.00,,,0.00,559.0,meteohub,2013-10-20 17:25:00,
2013-10-20 13:31:00,74.8,61.0,29.98,SE,130,3.0,5.0,62,0.00,,,0.00,729.0,meteohub,2013-10-20 17:31:00,
2013-10-20 13:37:00,75.2,60.8,29.98,East,82,1.0,5.0,61,0.00,,,0.00,712.0,meteohub,2013-10-20 17:37:00,
2013-10-20 13:43:00,75.6,60.3,29.98,SSE,162,1.0,5.0,59,0.00,,,0.00,603.0,meteohub,2013-10-20 17:43:00,
2013-10-20 13:50:00,74.7,60.8,29.98,North,355,0.0,5.0,62,0.00,,,0.00,292.0,meteohub,2013-10-20 17:50:00,
2013-10-20 13:56:00,74.7,60.8,29.98,NE,34,0.0,6.0,62,0.00,,,0.00,517.0,meteohub,2013-10-20 17:56:00,
2013-10-20 14:02:00,74.7,60.8,29.98,ENE,61,0.0,6.0,62,0.00,,,0.00,283.0,meteohub,2013-10-20 18:02:00,
2013-10-20 14:07:00,74.1,59.4,29.97,NE,36,2.0,6.0,60,0.00,,,0.00,436.0,meteohub,2013-10-20 18:07:00,
2013-10-20 14:12:00,74.8,60.4,29.97,SE,139,1.0,6.0,61,0.00,,,0.00,410.0,meteohub,2013-10-20 18:12:00,
2013-10-20 14:17:00,75.0,60.3,29.97,East,98,1.0,6.0,60,0.00,,,0.00,731.0,meteohub,2013-10-20 18:17:00,
2013-10-20 14:24:00,75.6,60.3,29.97,ENE,66,2.0,5.0,59,0.00,,,0.00,380.0,meteohub,2013-10-20 18:24:00,
2013-10-20 14:30:00,75.6,60.3,29.97,NE,47,2.0,5.0,59,0.00,,,0.00,362.0,meteohub,2013-10-20 18:30:00,
2013-10-20 14:36:00,74.7,60.8,29.97,West,267,1.0,5.0,62,0.00,,,0.00,439.0,meteohub,2013-10-20 18:36:00,
2013-10-20 14:42:00,75.2,60.4,29.96,NE,51,1.0,5.0,60,0.00,,,0.00,436.0,meteohub,2013-10-20 18:42:00,
2013-10-20 14:47:00,75.9,61.0,29.96,NNE,13,0.0,5.0,60,0.00,,,0.00,735.0,meteohub,2013-10-20 18:47:00,
2013-10-20 14:52:00,76.8,61.9,29.96,WSW,244,1.0,5.0,60,0.00,,,0.00,359.0,meteohub,2013-10-20 18:52:00,
2013-10-20 14:58:00,75.7,60.8,29.96,NE,40,2.0,5.0,60,0.00,,,0.00,359.0,meteohub,2013-10-20 18:58:00,
2013-10-20 15:04:00,75.2,60.4,29.96,NNE,31,1.0,5.0,60,0.00,,,0.00,255.0,meteohub,2013-10-20 19:04:00,
2013-10-20 15:10:00,75.4,61.9,29.96,NE,39,1.0,5.0,63,0.00,,,0.00,399.0,meteohub,2013-10-20 19:10:00,
2013-10-20 15:16:00,75.9,61.0,29.96,NNE,13,2.0,5.0,60,0.00,,,0.00,383.0,meteohub,2013-10-20 19:16:00,
2013-10-20 15:22:00,75.6,60.3,29.96,SSE,149,2.0,5.0,59,0.00,,,0.00,304.0,meteohub,2013-10-20 19:22:00,
2013-10-20 15:27:00,75.4,61.0,29.96,East,86,1.0,5.0,61,0.00,,,0.00,332.0,meteohub,2013-10-20 19:27:00,
2013-10-20 15:32:00,75.2,59.9,29.96,NE,46,0.0,5.0,59,0.00,,,0.00,311.0,meteohub,2013-10-20 19:32:00,
2013-10-20 15:38:00,75.6,61.2,29.96,NE,45,0.0,4.0,61,0.00,,,0.00,308.0,meteohub,2013-10-20 19:38:00,
2013-10-20 15:44:00,75.9,60.6,29.95,SE,142,0.0,4.0,59,0.00,,,0.00,320.0,meteohub,2013-10-20 19:44:00,
2013-10-20 15:51:00,75.9,61.9,29.95,NNE,13,1.0,4.0,62,0.00,,,0.00,367.0,meteohub,2013-10-20 19:51:00,
2013-10-20 15:57:00,76.3,61.3,29.95,South,172,1.0,4.0,60,0.00,,,0.00,584.0,meteohub,2013-10-20 19:57:00,
2013-10-20 16:02:00,77.4,60.4,29.95,SSW,207,1.0,3.0,56,0.00,,,0.00,555.0,meteohub,2013-10-20 20:02:00,
2013-10-20 16:07:00,77.2,60.3,29.95,North,351,1.0,3.0,56,0.00,,,0.00,297.0,meteohub,2013-10-20 20:07:00,
2013-10-20 16:12:00,76.6,59.7,29.96,NNE,15,2.0,3.0,56,0.00,,,0.00,524.0,meteohub,2013-10-20 20:12:00,
2013-10-20 16:17:00,76.8,61.0,29.95,NE,37,1.0,3.0,58,0.00,,,0.00,462.0,meteohub,2013-10-20 20:17:00,
2013-10-20 16:22:00,77.5,61.5,29.95,North,9,1.0,3.0,58,0.00,,,0.00,464.0,meteohub,2013-10-20 20:22:00,
2013-10-20 16:27:00,76.8,61.3,29.95,SSE,165,2.0,7.0,59,0.00,,,0.00,346.0,meteohub,2013-10-20 20:27:00,
2013-10-20 16:34:00,75.4,62.8,29.95,ENE,57,1.0,7.0,65,0.00,,,0.00,139.0,meteohub,2013-10-20 20:34:00,
2013-10-20 16:40:00,75.9,61.9,29.95,SE,126,2.0,7.0,62,0.00,,,0.00,401.0,meteohub,2013-10-20 20:40:00,
2013-10-20 16:47:00,76.1,61.7,29.95,SSE,151,1.0,7.0,61,0.00,,,0.00,262.0,meteohub,2013-10-20 20:47:00,
2013-10-20 16:53:00,76.3,61.9,29.96,NE,47,2.0,4.0,61,0.00,,,0.00,396.0,meteohub,2013-10-20 20:53:00,
2013-10-20 16:59:00,76.3,62.2,29.96,NNE,28,2.0,4.0,62,0.00,,,0.00,290.0,meteohub,2013-10-20 20:59:00,
2013-10-20 17:05:00,75.7,61.9,29.96,NE,53,1.0,4.0,62,0.00,,,0.00,76.0,meteohub,2013-10-20 21:05:00,
2013-10-20 17:12:00,74.5,61.0,29.96,SE,143,0.0,4.0,63,0.00,,,0.00,84.0,meteohub,2013-10-20 21:12:00,
2013-10-20 17:17:00,73.8,61.3,29.96,SE,135,0.0,4.0,65,0.00,,,0.00,121.0,meteohub,2013-10-20 21:17:00,
2013-10-20 17:22:00,74.1,62.1,29.97,SE,131,1.0,4.0,66,0.00,,,0.00,148.0,meteohub,2013-10-20 21:22:00,
2013-10-20 17:27:00,74.1,61.5,29.97,SE,144,1.0,4.0,65,0.00,,,0.00,70.0,meteohub,2013-10-20 21:27:00,
2013-10-20 17:32:00,73.8,61.3,29.97,SE,144,0.0,4.0,65,0.00,,,0.00,56.0,meteohub,2013-10-20 21:32:00,
2013-10-20 17:39:00,73.4,61.7,29.97,SSE,149,0.0,4.0,67,0.00,,,0.00,70.0,meteohub,2013-10-20 21:39:00,
2013-10-20 17:46:00,73.0,62.6,29.96,SSE,148,0.0,2.0,70,0.00,,,0.00,70.0,meteohub,2013-10-20 21:46:00,
2013-10-20 17:52:00,73.0,62.2,29.96,SSE,148,0.0,2.0,69,0.00,,,0.00,62.0,meteohub,2013-10-20 21:52:00,
2013-10-20 17:57:00,72.9,62.1,29.96,SSE,149,1.0,2.0,69,0.00,,,0.00,53.0,meteohub,2013-10-20 21:57:00,
2013-10-20 18:02:00,72.7,62.2,29.97,SSE,149,0.0,2.0,70,0.00,,,0.00,62.0,meteohub,2013-10-20 22:02:00,
2013-10-20 18:07:00,72.7,62.2,29.97,SSE,149,0.0,1.0,70,0.00,,,0.00,49.0,meteohub,2013-10-20 22:07:00,
2013-10-20 18:12:00,72.3,62.8,29.97,SE,145,0.0,1.0,72,0.00,,,0.00,39.0,meteohub,2013-10-20 22:12:00,
2013-10-20 18:17:00,72.1,63.0,29.97,SE,145,1.0,1.0,73,0.00,,,0.00,47.0,meteohub,2013-10-20 22:17:00,
2013-10-20 18:22:00,72.0,63.7,29.97,SE,145,0.0,1.0,75,0.00,,,0.00,51.0,meteohub,2013-10-20 22:22:00,
2013-10-20 18:27:00,72.1,63.0,29.97,SE,145,0.0,1.0,73,0.00,,,0.00,51.0,meteohub,2013-10-20 22:27:00,
2013-10-20 18:32:00,72.3,63.1,29.97,SE,145,0.0,1.0,73,0.00,,,0.00,42.0,meteohub,2013-10-20 22:32:00,
2013-10-20 18:37:00,72.1,63.3,29.97,SE,145,0.0,1.0,74,0.00,,,0.00,30.0,meteohub,2013-10-20 22:37:00,
2013-10-20 18:42:00,72.0,63.1,29.98,SE,145,0.0,1.0,74,0.00,,,0.00,16.0,meteohub,2013-10-20 22:42:00,
2013-10-20 18:47:00,71.6,63.3,29.98,SE,145,0.0,1.0,75,0.00,,,0.00,7.0,meteohub,2013-10-20 22:47:00,
2013-10-20 18:52:00,71.2,63.3,29.97,SE,145,0.0,1.0,76,0.00,,,0.00,0.0,meteohub,2013-10-20 22:52:00,
2013-10-20 18:57:00,70.9,63.3,29.98,SE,145,0.0,1.0,77,0.00,,,0.00,0.0,meteohub,2013-10-20 22:57:00,
2013-10-20 19:02:00,70.2,63.3,29.98,SE,145,0.0,1.0,79,0.00,,,0.00,0.0,meteohub,2013-10-20 23:02:00,
2013-10-20 19:07:00,69.6,63.1,29.98,SE,145,0.0,1.0,80,0.00,,,0.00,0.0,meteohub,2013-10-20 23:07:00,
2013-10-20 19:12:00,69.3,63.5,29.98,SE,145,0.0,1.0,82,0.00,,,0.00,0.0,meteohub,2013-10-20 23:12:00,
2013-10-20 19:17:00,69.1,63.3,29.98,SE,145,0.0,1.0,82,0.00,,,0.00,0.0,meteohub,2013-10-20 23:17:00,
2013-10-20 19:22:00,68.9,63.5,29.98,SE,145,0.0,1.0,83,0.00,,,0.00,0.0,meteohub,2013-10-20 23:22:00,
2013-10-20 19:27:00,68.9,63.9,29.98,SE,145,0.0,1.0,84,0.00,,,0.00,0.0,meteohub,2013-10-20 23:27:00,
2013-10-20 19:32:00,68.7,64.0,29.98,SE,145,0.0,1.0,85,0.00,,,0.00,0.0,meteohub,2013-10-20 23:32:00,
2013-10-20 19:37:00,68.5,64.2,29.99,SE,145,0.0,1.0,86,0.00,,,0.00,0.0,meteohub,2013-10-20 23:37:00,
2013-10-20 19:42:00,68.2,63.9,29.99,SE,145,0.0,1.0,86,0.00,,,0.00,0.0,meteohub,2013-10-20 23:42:00,
2013-10-20 19:47:00,68.0,64.0,29.99,SE,145,0.0,1.0,87,0.00,,,0.00,0.0,meteohub,2013-10-20 23:47:00,
2013-10-20 19:52:00,67.5,63.9,29.99,SE,145,0.0,1.0,88,0.00,,,0.00,0.0,meteohub,2013-10-20 23:52:00,
2013-10-20 19:57:00,67.1,63.5,29.99,SE,145,0.0,1.0,88,0.00,,,0.00,0.0,meteohub,2013-10-20 23:57:00,
2013-10-20 20:02:00,66.7,63.3,29.99,SE,145,0.0,1.0,89,0.00,,,0.00,0.0,meteohub,2013-10-21 00:02:00,
2013-10-20 20:08:00,66.6,63.5,29.99,SE,145,0.0,1.0,90,0.00,,,0.00,0.0,meteohub,2013-10-21 00:08:00,
2013-10-20 20:15:00,66.2,63.5,29.99,SE,145,0.0,1.0,91,0.00,,,0.00,0.0,meteohub,2013-10-21 00:15:00,
2013-10-20 20:21:00,66.0,63.3,29.99,SE,145,0.0,1.0,91,0.00,,,0.00,0.0,meteohub,2013-10-21 00:21:00,
2013-10-20 20:27:00,65.8,63.1,29.99,SE,145,0.0,1.0,91,0.00,,,0.00,0.0,meteohub,2013-10-21 00:27:00,
2013-10-20 20:32:00,65.8,63.1,30.00,SE,145,0.0,1.0,91,0.00,,,0.00,0.0,meteohub,2013-10-21 00:32:00,
2013-10-20 20:37:00,65.7,63.0,29.99,SE,145,0.0,1.0,91,0.00,,,0.00,0.0,meteohub,2013-10-21 00:37:00,
2013-10-20 20:43:00,65.7,63.0,30.00,SE,145,0.0,1.0,91,0.00,,,0.00,0.0,meteohub,2013-10-21 00:43:00,
2013-10-20 20:49:00,65.5,62.8,30.00,SE,145,0.0,1.0,91,0.00,,,0.00,0.0,meteohub,2013-10-21 00:49:00,
2013-10-20 20:55:00,65.5,62.8,30.00,SE,145,0.0,1.0,91,0.00,,,0.00,0.0,meteohub,2013-10-21 00:55:00,
2013-10-20 21:02:00,65.1,62.8,29.99,SE,145,0.0,1.0,92,0.00,,,0.00,0.0,meteohub,2013-10-21 01:02:00,
2013-10-20 21:07:00,64.9,62.6,30.00,SE,145,0.0,1.0,92,0.00,,,0.00,0.0,meteohub,2013-10-21 01:07:00,
2013-10-20 21:14:00,64.8,62.4,30.00,SE,145,0.0,1.0,92,0.00,,,0.00,0.0,meteohub,2013-10-21 01:14:00,
2013-10-20 21:21:00,64.6,62.4,30.00,SE,145,0.0,1.0,93,0.00,,,0.00,0.0,meteohub,2013-10-21 01:21:00,
2013-10-20 21:27:00,64.4,62.4,30.00,SE,145,0.0,1.0,93,0.00,,,0.00,0.0,meteohub,2013-10-21 01:27:00,
2013-10-20 21:33:00,64.2,62.2,30.00,SE,145,0.0,1.0,93,0.00,,,0.00,0.0,meteohub,2013-10-21 01:33:00,
2013-10-20 21:40:00,64.2,62.2,30.00,SE,145,0.0,1.0,93,0.00,,,0.00,0.0,meteohub,2013-10-21 01:40:00,
2013-10-20 21:46:00,64.0,62.2,30.00,SE,145,0.0,1.0,94,0.00,,,0.00,0.0,meteohub,2013-10-21 01:46:00,
2013-10-20 21:52:00,64.0,62.2,30.00,SE,145,0.0,1.0,94,0.00,,,0.00,0.0,meteohub,2013-10-21 01:52:00,
2013-10-20 21:57:00,64.0,62.2,30.00,SE,145,0.0,1.0,94,0.00,,,0.00,0.0,meteohub,2013-10-21 01:57:00,
2013-10-20 22:02:00,64.0,62.2,30.00,SE,145,0.0,1.0,94,0.00,,,0.00,0.0,meteohub,2013-10-21 02:02:00,
2013-10-20 22:07:00,64.0,62.2,30.00,SE,145,0.0,0.0,94,0.00,,,0.00,0.0,meteohub,2013-10-21 02:07:00,
2013-10-20 22:12:00,64.0,62.2,30.01,SE,145,0.0,0.0,94,0.00,,,0.00,0.0,meteohub,2013-10-21 02:12:00,
2013-10-20 22:18:00,63.9,62.1,30.00,SE,145,0.0,0.0,94,0.00,,,0.00,0.0,meteohub,2013-10-21 02:18:00,
2013-10-20 22:24:00,63.9,61.9,30.01,SE,145,0.0,0.0,93,0.00,,,0.00,0.0,meteohub,2013-10-21 02:24:00,
2013-10-20 22:30:00,63.7,61.9,30.01,SE,145,0.0,0.0,94,0.00,,,0.12,0.0,meteohub,2013-10-21 02:30:00,
2013-10-20 22:37:00,63.3,61.5,30.01,SE,145,0.0,0.0,94,0.00,,,0.00,0.0,meteohub,2013-10-21 02:37:00,
2013-10-20 22:43:00,63.1,61.3,30.01,SE,145,0.0,0.0,94,0.00,,,0.00,0.0,meteohub,2013-10-21 02:43:00,
2013-10-20 22:49:00,63.1,61.7,30.01,SE,145,0.0,0.0,95,0.00,,,0.00,0.0,meteohub,2013-10-21 02:49:00,
2013-10-20 22:56:00,62.8,61.3,30.01,SE,145,0.0,0.0,95,0.00,,,0.00,0.0,meteohub,2013-10-21 02:56:00,
2013-10-20 23:02:00,62.8,61.3,30.01,SE,145,0.0,0.0,95,0.00,,,0.00,0.0,meteohub,2013-10-21 03:02:00,
2013-10-20 23:07:00,62.8,61.3,30.00,SE,145,0.0,0.0,95,0.00,,,0.00,0.0,meteohub,2013-10-21 03:07:00,
2013-10-20 23:15:00,62.8,61.3,30.00,SE,145,0.0,0.0,95,0.00,,,0.00,0.0,meteohub,2013-10-21 03:15:00,
2013-10-20 23:21:00,62.4,61.3,30.01,SE,145,0.0,0.0,96,0.00,,,0.00,0.0,meteohub,2013-10-21 03:21:00,
2013-10-20 23:27:00,62.4,61.3,30.01,SE,145,0.0,0.0,96,0.00,,,0.00,0.0,meteohub,2013-10-21 03:27:00,
2013-10-20 23:32:00,62.4,61.3,30.01,SE,145,0.0,0.0,96,0.00,,,0.00,0.0,meteohub,2013-10-21 03:32:00,
2013-10-20 23:37:00,62.4,61.3,30.01,SE,145,0.0,0.0,96,0.00,,,0.00,0.0,meteohub,2013-10-21 03:37:00,
2013-10-20 23:42:00,62.2,61.2,30.01,SE,145,0.0,0.0,96,0.00,,,0.00,0.0,meteohub,2013-10-21 03:42:00,
2013-10-20 23:49:00,62.4,61.3,30.00,SE,145,0.0,0.0,96,0.00,,,0.00,0.0,meteohub,2013-10-21 03:49:00,
2013-10-20 23:55:00,62.4,61.3,30.00,SE,145,0.0,0.0,96,0.00,,,0.00,0.0,meteohub,2013-10-21 03:55:00,